Terminal Aerodrome Forecast
Issued by NWS

Home | Current Version | Previous Version | Text Only | Print | Product List | Glossary On
Versions: 1 2 3 4 5 6 7 8 9 10 11 12 13
000
FTUS45 KLKN 060037 AAA
TAFWMC
TAF AMD
KWMC 060037Z 0601/0624 VRB08G18KT P6SM VCTS SCT070CB BKN150
     FM060500 35012G22KT P6SM FEW070 BKN150
     FM061200 04011KT P6SM BKN150
     FM062200 02010KT P6SM VCTS BKN070CB=

USA.gov is the U.S. government's official web portal to all federal, state and local government web resources and services.